Year,Month,Day,Hour,Minute,Value (Times are PST for temperature in C)
2016,06,17,00,00,10.60
2016,06,17,00,01,10.60
2016,06,17,00,02,10.60
2016,06,17,00,03,10.60
2016,06,17,00,04,10.60
2016,06,17,00,05,10.60
2016,06,17,00,06,10.60
2016,06,17,00,07,10.50
2016,06,17,00,08,10.50
2016,06,17,00,09,10.50
2016,06,17,00,10,10.50
2016,06,17,00,11,10.50
2016,06,17,00,12,10.50
2016,06,17,00,13,10.40
2016,06,17,00,14,10.40
2016,06,17,00,15,10.40
2016,06,17,00,16,10.40
2016,06,17,00,17,10.40
2016,06,17,00,18,10.40
2016,06,17,00,19,10.40
2016,06,17,00,20,10.40
2016,06,17,00,21,10.40
2016,06,17,00,22,10.40
2016,06,17,00,23,10.40
2016,06,17,00,24,10.30
2016,06,17,00,25,10.30
2016,06,17,00,26,10.30
2016,06,17,00,27,10.30
2016,06,17,00,28,10.30
2016,06,17,00,29,10.30
2016,06,17,00,30,10.30
2016,06,17,00,31,10.30
2016,06,17,00,32,10.30
2016,06,17,00,33,10.30
2016,06,17,00,34,10.30
2016,06,17,00,35,10.30
2016,06,17,00,36,10.30
2016,06,17,00,37,10.20
2016,06,17,00,38,10.30
2016,06,17,00,39,10.20
2016,06,17,00,40,10.20
2016,06,17,00,41,10.20
2016,06,17,00,42,10.20
2016,06,17,00,43,10.20
2016,06,17,00,44,10.20
2016,06,17,00,45,10.20
2016,06,17,00,46,10.20
2016,06,17,00,47,10.20
2016,06,17,00,48,10.20
2016,06,17,00,49,10.20
2016,06,17,00,50,10.20
2016,06,17,00,51,10.20
2016,06,17,00,52,10.20
2016,06,17,00,53,10.20
2016,06,17,00,54,10.20
2016,06,17,00,55,10.20
2016,06,17,00,56,10.20
2016,06,17,00,57,10.10
2016,06,17,00,58,10.10
2016,06,17,00,59,10.10
2016,06,17,01,00,10.10
2016,06,17,01,01,10.10
2016,06,17,01,02,10.10
2016,06,17,01,03,10.10
2016,06,17,01,04,10.10
2016,06,17,01,05,10.10
2016,06,17,01,06,10.10
2016,06,17,01,07,10.10
2016,06,17,01,08,10.10
2016,06,17,01,09,10.10
2016,06,17,01,10,10.10
2016,06,17,01,11,10.10
2016,06,17,01,12,10.10
2016,06,17,01,13,10.10
2016,06,17,01,14,10.10
2016,06,17,01,15,10.10
2016,06,17,01,16,10.10
2016,06,17,01,17,10.10
2016,06,17,01,18,10.10
2016,06,17,01,19,10.10
2016,06,17,01,20,10.10
2016,06,17,01,21,10.10
2016,06,17,01,22,10.10
2016,06,17,01,23,10.10
2016,06,17,01,24,10.10
2016,06,17,01,25,10.10
2016,06,17,01,26,10.00
2016,06,17,01,27,10.00
2016,06,17,01,28,10.00
2016,06,17,01,29,10.00
2016,06,17,01,30,10.00
2016,06,17,01,31,10.00
2016,06,17,01,32,10.00
2016,06,17,01,33,10.00
2016,06,17,01,34,9.90
2016,06,17,01,35,9.90
2016,06,17,01,36,9.90
2016,06,17,01,37,9.90
2016,06,17,01,38,9.90
2016,06,17,01,39,9.90
2016,06,17,01,40,9.90
2016,06,17,01,41,9.90
2016,06,17,01,42,9.90
2016,06,17,01,43,9.90
2016,06,17,01,44,9.90
2016,06,17,01,45,9.90
2016,06,17,01,46,9.90
2016,06,17,01,47,9.90
2016,06,17,01,48,9.90
2016,06,17,01,49,9.80
2016,06,17,01,50,9.80
2016,06,17,01,51,9.80
2016,06,17,01,52,9.80
2016,06,17,01,53,9.80
2016,06,17,01,54,9.80
2016,06,17,01,55,9.80
2016,06,17,01,56,9.70
2016,06,17,01,57,9.70
2016,06,17,01,58,9.70
2016,06,17,01,59,9.70
2016,06,17,02,00,9.70
2016,06,17,02,01,9.70
2016,06,17,02,02,9.60
2016,06,17,02,03,9.60
2016,06,17,02,04,9.60
2016,06,17,02,05,9.60
2016,06,17,02,06,9.60
2016,06,17,02,07,9.60
2016,06,17,02,08,9.60
2016,06,17,02,09,9.50
2016,06,17,02,10,9.50
2016,06,17,02,11,9.50
2016,06,17,02,12,9.50
2016,06,17,02,13,9.50
2016,06,17,02,14,9.50
2016,06,17,02,15,9.40
2016,06,17,02,16,9.40
2016,06,17,02,17,9.40
2016,06,17,02,18,9.40
2016,06,17,02,19,9.40
2016,06,17,02,20,9.40
2016,06,17,02,21,9.40
2016,06,17,02,22,9.40
2016,06,17,02,23,9.40
2016,06,17,02,24,9.40
2016,06,17,02,25,9.40
2016,06,17,02,26,9.30
2016,06,17,02,27,9.30
2016,06,17,02,28,9.30
2016,06,17,02,29,9.30
2016,06,17,02,30,9.30
2016,06,17,02,31,9.30
2016,06,17,02,32,9.30
2016,06,17,02,33,9.30
2016,06,17,02,34,9.30
2016,06,17,02,35,9.30
2016,06,17,02,36,9.30
2016,06,17,02,37,9.30
2016,06,17,02,38,9.30
2016,06,17,02,39,9.30
2016,06,17,02,40,9.30
2016,06,17,02,41,9.30
2016,06,17,02,42,9.30
2016,06,17,02,43,9.30
2016,06,17,02,44,9.30
2016,06,17,02,45,9.30
2016,06,17,02,46,9.30
2016,06,17,02,47,9.30
2016,06,17,02,48,9.30
2016,06,17,02,49,9.30
2016,06,17,02,50,9.30
2016,06,17,02,51,9.30
2016,06,17,02,52,9.30
2016,06,17,02,53,9.30
2016,06,17,02,54,9.30
2016,06,17,02,55,9.30
2016,06,17,02,56,9.30
2016,06,17,02,57,9.30
2016,06,17,02,58,9.30
2016,06,17,02,59,9.30
2016,06,17,03,00,9.20
2016,06,17,03,01,9.30
2016,06,17,03,02,9.20
2016,06,17,03,03,9.30
2016,06,17,03,04,9.20
2016,06,17,03,05,9.20
2016,06,17,03,06,9.20
2016,06,17,03,07,9.30
2016,06,17,03,08,9.20
2016,06,17,03,09,9.30
2016,06,17,03,10,9.20
2016,06,17,03,11,9.20
2016,06,17,03,12,9.20
2016,06,17,03,13,9.20
2016,06,17,03,14,9.20
2016,06,17,03,15,9.20
2016,06,17,03,16,9.20
2016,06,17,03,17,9.20
2016,06,17,03,18,9.20
2016,06,17,03,19,9.20
2016,06,17,03,20,9.20
2016,06,17,03,21,9.20
2016,06,17,03,22,9.20
2016,06,17,03,23,9.20
2016,06,17,03,24,9.20
2016,06,17,03,25,9.20
2016,06,17,03,26,9.20
2016,06,17,03,27,9.20
2016,06,17,03,28,9.20
2016,06,17,03,29,9.20
2016,06,17,03,30,9.20
2016,06,17,03,31,9.20
2016,06,17,03,32,9.20
2016,06,17,03,33,9.20
2016,06,17,03,34,9.20
2016,06,17,03,35,9.20
2016,06,17,03,36,9.20
2016,06,17,03,37,9.20
2016,06,17,03,38,9.20
2016,06,17,03,39,9.20
2016,06,17,03,40,9.20
2016,06,17,03,41,9.20
2016,06,17,03,42,9.20
2016,06,17,03,43,9.20
2016,06,17,03,44,9.20
2016,06,17,03,45,9.20
2016,06,17,03,46,9.20
2016,06,17,03,47,9.20
2016,06,17,03,48,9.20
2016,06,17,03,49,9.10
2016,06,17,03,50,9.10
2016,06,17,03,51,9.10
2016,06,17,03,52,9.10
2016,06,17,03,53,9.10
2016,06,17,03,54,9.10
2016,06,17,03,55,9.10
2016,06,17,03,56,9.10
2016,06,17,03,57,9.10
2016,06,17,03,58,9.10
2016,06,17,03,59,9.10
2016,06,17,04,00,9.10
2016,06,17,04,01,9.10
2016,06,17,04,02,9.10
2016,06,17,04,03,9.10
2016,06,17,04,04,9.10
2016,06,17,04,05,9.10
2016,06,17,04,06,9.10
2016,06,17,04,07,9.10
2016,06,17,04,08,9.10
2016,06,17,04,09,9.10
2016,06,17,04,10,9.10
2016,06,17,04,11,9.10
2016,06,17,04,12,9.10
2016,06,17,04,13,9.10
2016,06,17,04,14,9.10
2016,06,17,04,15,9.10
2016,06,17,04,16,9.10
2016,06,17,04,17,9.10
2016,06,17,04,18,9.10
2016,06,17,04,19,9.10
2016,06,17,04,20,9.10
2016,06,17,04,21,9.10
2016,06,17,04,22,9.10
2016,06,17,04,23,9.10
2016,06,17,04,24,9.10
2016,06,17,04,25,9.10
2016,06,17,04,26,9.10
2016,06,17,04,27,9.10
2016,06,17,04,28,9.10
2016,06,17,04,29,9.10
2016,06,17,04,30,9.10
2016,06,17,04,31,9.10
2016,06,17,04,32,9.10
2016,06,17,04,33,9.10
2016,06,17,04,34,9.10
2016,06,17,04,35,9.10
2016,06,17,04,36,9.10
2016,06,17,04,37,9.10
2016,06,17,04,38,9.00
2016,06,17,04,39,9.00
2016,06,17,04,40,9.00
2016,06,17,04,41,9.00
2016,06,17,04,42,9.00
2016,06,17,04,43,9.00
2016,06,17,04,44,9.00
2016,06,17,04,45,9.00
2016,06,17,04,46,8.90
2016,06,17,04,47,8.90
2016,06,17,04,48,9.00
2016,06,17,04,49,9.00
2016,06,17,04,50,8.90
2016,06,17,04,51,9.00
2016,06,17,04,52,9.00
2016,06,17,04,53,8.90
2016,06,17,04,54,8.90
2016,06,17,04,55,8.90
2016,06,17,04,56,8.90
2016,06,17,04,57,8.90
2016,06,17,04,58,8.90
2016,06,17,04,59,8.90
2016,06,17,05,00,8.90
2016,06,17,05,01,8.90
2016,06,17,05,02,8.90
2016,06,17,05,03,8.90
2016,06,17,05,04,8.90
2016,06,17,05,05,8.90
2016,06,17,05,06,8.90
2016,06,17,05,07,8.90
2016,06,17,05,08,8.90
2016,06,17,05,09,8.90
2016,06,17,05,10,8.90
2016,06,17,05,11,8.90
2016,06,17,05,12,8.90
2016,06,17,05,13,8.80
2016,06,17,05,14,8.90
2016,06,17,05,15,8.90
2016,06,17,05,16,8.80
2016,06,17,05,17,8.80
2016,06,17,05,18,8.80
2016,06,17,05,19,8.90
2016,06,17,05,20,8.90
2016,06,17,05,21,8.90
2016,06,17,05,22,8.90
2016,06,17,05,23,8.90
2016,06,17,05,24,8.90
2016,06,17,05,25,8.90
2016,06,17,05,26,8.90
2016,06,17,05,27,8.90
2016,06,17,05,28,8.90
2016,06,17,05,29,8.90
2016,06,17,05,30,8.90
2016,06,17,05,31,8.90
2016,06,17,05,32,8.90
2016,06,17,05,33,9.00
2016,06,17,05,34,9.00
2016,06,17,05,35,9.00
2016,06,17,05,36,9.00
2016,06,17,05,37,9.00
2016,06,17,05,38,9.00
2016,06,17,05,39,9.00
2016,06,17,05,40,9.00
2016,06,17,05,41,9.00
2016,06,17,05,42,9.00
2016,06,17,05,43,9.10
2016,06,17,05,44,9.10
2016,06,17,05,45,9.10
2016,06,17,05,46,9.10
2016,06,17,05,47,9.10
2016,06,17,05,48,9.10
2016,06,17,05,49,9.10
2016,06,17,05,50,9.10
2016,06,17,05,51,9.10
2016,06,17,05,52,9.10
2016,06,17,05,53,9.10
2016,06,17,05,54,9.10
2016,06,17,05,55,9.10
2016,06,17,05,56,9.10
2016,06,17,05,57,9.10
2016,06,17,05,58,9.10
2016,06,17,05,59,9.10
2016,06,17,06,00,9.10
2016,06,17,06,01,9.10
2016,06,17,06,02,9.10
2016,06,17,06,03,9.10
2016,06,17,06,04,9.10
2016,06,17,06,05,9.20
2016,06,17,06,06,9.20
2016,06,17,06,07,9.20
2016,06,17,06,08,9.20
2016,06,17,06,09,9.20
2016,06,17,06,10,9.20
2016,06,17,06,11,9.20
2016,06,17,06,12,9.20
2016,06,17,06,13,9.30
2016,06,17,06,14,9.30
2016,06,17,06,15,9.30
2016,06,17,06,16,9.30
2016,06,17,06,17,9.30
2016,06,17,06,18,9.30
2016,06,17,06,19,9.30
2016,06,17,06,20,9.30
2016,06,17,06,21,9.30
2016,06,17,06,22,9.40
2016,06,17,06,23,9.40
2016,06,17,06,24,9.40
2016,06,17,06,25,9.40
2016,06,17,06,26,9.40
2016,06,17,06,27,9.40
2016,06,17,06,28,9.40
2016,06,17,06,29,9.40
2016,06,17,06,30,9.40
2016,06,17,06,31,9.50
2016,06,17,06,32,9.50
2016,06,17,06,33,9.50
2016,06,17,06,34,9.60
2016,06,17,06,35,9.60
2016,06,17,06,36,9.60
2016,06,17,06,37,9.60
2016,06,17,06,38,9.60
2016,06,17,06,39,9.70
2016,06,17,06,40,9.70
2016,06,17,06,41,9.70
2016,06,17,06,42,9.70
2016,06,17,06,43,9.70
2016,06,17,06,44,9.70
2016,06,17,06,45,9.70
2016,06,17,06,46,9.70
2016,06,17,06,47,9.70
2016,06,17,06,48,9.80
2016,06,17,06,49,9.80
2016,06,17,06,50,9.80
2016,06,17,06,51,9.80
2016,06,17,06,52,9.80
2016,06,17,06,53,9.80
2016,06,17,06,54,9.80
2016,06,17,06,55,9.80
2016,06,17,06,56,9.80
2016,06,17,06,57,9.90
2016,06,17,06,58,9.90
2016,06,17,06,59,9.90
2016,06,17,07,00,10.00
2016,06,17,07,01,10.00
2016,06,17,07,02,10.00
2016,06,17,07,03,10.10
2016,06,17,07,04,10.10
2016,06,17,07,05,10.10
2016,06,17,07,06,10.20
2016,06,17,07,07,10.20
2016,06,17,07,08,10.20
2016,06,17,07,09,10.30
2016,06,17,07,10,10.30
2016,06,17,07,11,10.30
2016,06,17,07,12,10.30
2016,06,17,07,13,10.40
2016,06,17,07,14,10.40
2016,06,17,07,15,10.50
2016,06,17,07,16,10.50
2016,06,17,07,17,10.60
2016,06,17,07,18,10.60
2016,06,17,07,19,10.60
2016,06,17,07,20,10.70
2016,06,17,07,21,10.70
2016,06,17,07,22,10.70
2016,06,17,07,23,10.70
2016,06,17,07,24,10.70
2016,06,17,07,25,10.70
2016,06,17,07,26,10.70
2016,06,17,07,27,10.80
2016,06,17,07,28,10.80
2016,06,17,07,29,10.80
2016,06,17,07,30,10.90
2016,06,17,07,31,10.90
2016,06,17,07,32,10.90
2016,06,17,07,33,11.00
2016,06,17,07,34,11.00
2016,06,17,07,35,11.10
2016,06,17,07,36,11.10
2016,06,17,07,37,11.20
2016,06,17,07,38,11.20
2016,06,17,07,39,11.20
2016,06,17,07,40,11.30
2016,06,17,07,41,11.30
2016,06,17,07,42,11.30
2016,06,17,07,43,11.30
2016,06,17,07,44,11.40
2016,06,17,07,45,11.40
2016,06,17,07,46,11.50
2016,06,17,07,47,11.50
2016,06,17,07,48,11.50
2016,06,17,07,49,11.60
2016,06,17,07,50,11.60
2016,06,17,07,51,11.70
2016,06,17,07,52,11.80
2016,06,17,07,53,11.80
2016,06,17,07,54,11.90
2016,06,17,07,55,12.00
2016,06,17,07,56,12.00
2016,06,17,07,57,12.10
2016,06,17,07,58,12.10
2016,06,17,07,59,12.20
2016,06,17,08,00,12.20
2016,06,17,08,01,12.30
2016,06,17,08,02,12.30
2016,06,17,08,03,12.40
2016,06,17,08,04,12.40
2016,06,17,08,05,12.40
2016,06,17,08,06,12.50
2016,06,17,08,07,12.50
2016,06,17,08,08,12.60
2016,06,17,08,09,12.60
2016,06,17,08,10,12.70
2016,06,17,08,11,12.70
2016,06,17,08,12,12.70
2016,06,17,08,13,12.80
2016,06,17,08,14,12.80
2016,06,17,08,15,12.80
2016,06,17,08,16,12.90
2016,06,17,08,17,12.90
2016,06,17,08,18,13.00
2016,06,17,08,19,13.00
2016,06,17,08,20,13.10
2016,06,17,08,21,13.10
2016,06,17,08,22,13.10
2016,06,17,08,23,13.20
2016,06,17,08,24,13.20
2016,06,17,08,25,13.30
2016,06,17,08,26,13.30
2016,06,17,08,27,13.30
2016,06,17,08,28,13.30
2016,06,17,08,29,13.30
2016,06,17,08,30,13.30
2016,06,17,08,31,13.30
2016,06,17,08,32,13.30
2016,06,17,08,33,13.30
2016,06,17,08,34,13.40
2016,06,17,08,35,13.40
2016,06,17,08,36,13.50
2016,06,17,08,37,13.50
2016,06,17,08,38,13.60
2016,06,17,08,39,13.60
2016,06,17,08,40,13.60
2016,06,17,08,41,13.60
2016,06,17,08,42,13.60
2016,06,17,08,43,13.60
2016,06,17,08,44,13.50
2016,06,17,08,45,13.50
2016,06,17,08,46,13.50
2016,06,17,08,47,13.60
2016,06,17,08,48,13.60
2016,06,17,08,49,13.70
2016,06,17,08,50,13.70
2016,06,17,08,51,13.70
2016,06,17,08,52,13.80
2016,06,17,08,53,13.80
2016,06,17,08,54,13.90
2016,06,17,08,55,13.90
2016,06,17,08,56,13.90
2016,06,17,08,57,14.00
2016,06,17,08,58,14.00
2016,06,17,08,59,14.00
2016,06,17,09,00,13.90
2016,06,17,09,01,13.90
2016,06,17,09,02,14.00
2016,06,17,09,03,14.00
2016,06,17,09,04,14.10
2016,06,17,09,05,14.20
2016,06,17,09,06,14.30
2016,06,17,09,07,14.30
2016,06,17,09,08,14.40
2016,06,17,09,09,14.50
2016,06,17,09,10,14.50
2016,06,17,09,11,14.50
2016,06,17,09,12,14.50
2016,06,17,09,13,14.60
2016,06,17,09,14,14.60
2016,06,17,09,15,14.60
2016,06,17,09,16,14.60
2016,06,17,09,17,14.50
2016,06,17,09,18,14.50
2016,06,17,09,19,14.50
2016,06,17,09,20,14.50
2016,06,17,09,21,14.50
2016,06,17,09,22,14.50
2016,06,17,09,23,14.60
2016,06,17,09,24,14.60
2016,06,17,09,25,14.60
2016,06,17,09,26,14.70
2016,06,17,09,27,14.70
2016,06,17,09,28,14.70
2016,06,17,09,29,14.70
2016,06,17,09,30,14.70
2016,06,17,09,31,14.70
2016,06,17,09,32,14.70
2016,06,17,09,33,14.70
2016,06,17,09,34,14.70
2016,06,17,09,35,14.80
2016,06,17,09,36,14.80
2016,06,17,09,37,14.90
2016,06,17,09,38,14.90
2016,06,17,09,39,14.90
2016,06,17,09,40,14.90
2016,06,17,09,41,14.80
2016,06,17,09,42,14.80
2016,06,17,09,43,14.80
2016,06,17,09,44,14.80
2016,06,17,09,45,14.80
2016,06,17,09,46,14.90
2016,06,17,09,47,14.90
2016,06,17,09,48,15.00
2016,06,17,09,49,15.00
2016,06,17,09,50,15.10
2016,06,17,09,51,15.10
2016,06,17,09,52,15.10
2016,06,17,09,53,15.20
2016,06,17,09,54,15.20
2016,06,17,09,55,15.20
2016,06,17,09,56,15.30
2016,06,17,09,57,15.30
2016,06,17,09,58,15.30
2016,06,17,09,59,15.40
2016,06,17,10,00,15.40
2016,06,17,10,01,15.40
2016,06,17,10,02,15.40
2016,06,17,10,03,15.40
2016,06,17,10,04,15.40
2016,06,17,10,05,15.50
2016,06,17,10,06,15.50
2016,06,17,10,07,15.60
2016,06,17,10,08,15.70
2016,06,17,10,09,15.80
2016,06,17,10,10,15.90
2016,06,17,10,11,15.90
2016,06,17,10,12,15.90
2016,06,17,10,13,16.00
2016,06,17,10,14,16.00
2016,06,17,10,15,16.00
2016,06,17,10,16,16.10
2016,06,17,10,17,16.10
2016,06,17,10,18,16.10
2016,06,17,10,19,16.10
2016,06,17,10,20,16.10
2016,06,17,10,21,16.10
2016,06,17,10,22,16.20
2016,06,17,10,23,16.20
2016,06,17,10,24,16.20
2016,06,17,10,25,16.20
2016,06,17,10,26,16.10
2016,06,17,10,27,16.00
2016,06,17,10,28,15.90
2016,06,17,10,29,15.80
2016,06,17,10,30,15.80
2016,06,17,10,31,15.80
2016,06,17,10,32,15.80
2016,06,17,10,33,15.80
2016,06,17,10,34,15.80
2016,06,17,10,35,15.80
2016,06,17,10,36,15.90
2016,06,17,10,37,15.90
2016,06,17,10,38,15.90
2016,06,17,10,39,15.90
2016,06,17,10,40,15.90
2016,06,17,10,41,15.80
2016,06,17,10,42,15.80
2016,06,17,10,43,15.80
2016,06,17,10,44,15.80
2016,06,17,10,45,15.80
2016,06,17,10,46,15.80
2016,06,17,10,47,15.80
2016,06,17,10,48,15.80
2016,06,17,10,49,15.80
2016,06,17,10,50,15.80
2016,06,17,10,51,15.80
2016,06,17,10,52,15.80
2016,06,17,10,53,15.80
2016,06,17,10,54,15.90
2016,06,17,10,55,15.80
2016,06,17,10,56,15.80
2016,06,17,10,57,15.80
2016,06,17,10,58,15.90
2016,06,17,10,59,16.10
2016,06,17,11,00,16.20
2016,06,17,11,01,16.30
2016,06,17,11,02,16.30
2016,06,17,11,03,16.40
2016,06,17,11,04,16.40
2016,06,17,11,05,16.50
2016,06,17,11,06,16.50
2016,06,17,11,07,16.60
2016,06,17,11,08,16.60
2016,06,17,11,09,16.50
2016,06,17,11,10,16.50
2016,06,17,11,11,16.50
2016,06,17,11,12,16.60
2016,06,17,11,13,16.60
2016,06,17,11,14,16.70
2016,06,17,11,15,16.70
2016,06,17,11,16,16.70
2016,06,17,11,17,16.80
2016,06,17,11,18,16.90
2016,06,17,11,19,16.90
2016,06,17,11,20,16.90
2016,06,17,11,21,16.80
2016,06,17,11,22,16.80
2016,06,17,11,23,16.80
2016,06,17,11,24,16.80
2016,06,17,11,25,16.80
2016,06,17,11,26,16.90
2016,06,17,11,27,16.90
2016,06,17,11,28,16.80
2016,06,17,11,29,16.80
2016,06,17,11,30,16.80
2016,06,17,11,31,16.80
2016,06,17,11,32,16.80
2016,06,17,11,33,16.80
2016,06,17,11,34,16.80
2016,06,17,11,35,16.90
2016,06,17,11,36,16.90
2016,06,17,11,37,16.90
2016,06,17,11,38,16.90
2016,06,17,11,39,16.90
2016,06,17,11,40,16.90
2016,06,17,11,41,17.00
2016,06,17,11,42,17.00
2016,06,17,11,43,17.00
2016,06,17,11,44,17.10
2016,06,17,11,45,17.10
2016,06,17,11,46,17.10
2016,06,17,11,47,17.00
2016,06,17,11,48,17.00
2016,06,17,11,49,16.90
2016,06,17,11,50,16.90
2016,06,17,11,51,16.90
2016,06,17,11,52,17.00
2016,06,17,11,53,17.00
2016,06,17,11,54,17.00
2016,06,17,11,55,17.00
2016,06,17,11,56,16.90
2016,06,17,11,57,16.90
2016,06,17,11,58,17.00
2016,06,17,11,59,17.00
2016,06,17,12,00,17.00
2016,06,17,12,01,17.00
2016,06,17,12,02,17.00
2016,06,17,12,03,17.00
2016,06,17,12,04,17.10
2016,06,17,12,05,17.10
2016,06,17,12,06,17.10
2016,06,17,12,07,17.10
2016,06,17,12,08,17.10
2016,06,17,12,09,17.10
2016,06,17,12,10,17.20
2016,06,17,12,11,17.30
2016,06,17,12,12,17.30
2016,06,17,12,13,17.30
2016,06,17,12,14,17.30
2016,06,17,12,15,17.40
2016,06,17,12,16,17.50
2016,06,17,12,17,17.50
2016,06,17,12,18,17.50
2016,06,17,12,19,17.50
2016,06,17,12,20,17.60
2016,06,17,12,21,17.60
2016,06,17,12,22,17.60
2016,06,17,12,23,17.60
2016,06,17,12,24,17.60
2016,06,17,12,25,17.50
2016,06,17,12,26,17.50
2016,06,17,12,27,17.50
2016,06,17,12,28,17.60
2016,06,17,12,29,17.70
2016,06,17,12,30,17.70
2016,06,17,12,31,17.70
2016,06,17,12,32,17.70
2016,06,17,12,33,17.80
2016,06,17,12,34,17.90
2016,06,17,12,35,17.90
2016,06,17,12,36,17.90
2016,06,17,12,37,18.00
2016,06,17,12,38,18.00
2016,06,17,12,39,18.10
2016,06,17,12,40,18.20
2016,06,17,12,41,18.20
2016,06,17,12,42,18.30
2016,06,17,12,43,18.30
2016,06,17,12,44,18.30
2016,06,17,12,45,18.40
2016,06,17,12,46,18.40
2016,06,17,12,47,18.40
2016,06,17,12,48,18.50
2016,06,17,12,49,18.50
2016,06,17,12,50,18.60
2016,06,17,12,51,18.60
2016,06,17,12,52,18.70
2016,06,17,12,53,18.70
2016,06,17,12,54,18.60
2016,06,17,12,55,18.60
2016,06,17,12,56,18.60
2016,06,17,12,57,18.50
2016,06,17,12,58,18.50
2016,06,17,12,59,18.50
2016,06,17,13,00,18.50
2016,06,17,13,01,18.60
2016,06,17,13,02,18.60
2016,06,17,13,03,18.60
2016,06,17,13,04,18.70
2016,06,17,13,05,18.70
2016,06,17,13,06,18.70
2016,06,17,13,07,18.70
2016,06,17,13,08,18.70
2016,06,17,13,09,18.70
2016,06,17,13,10,18.80
2016,06,17,13,11,18.70
2016,06,17,13,12,18.60
2016,06,17,13,13,18.50
2016,06,17,13,14,18.50
2016,06,17,13,15,18.50
2016,06,17,13,16,18.50
2016,06,17,13,17,18.50
2016,06,17,13,18,18.50
2016,06,17,13,19,18.50
2016,06,17,13,20,18.40
2016,06,17,13,21,18.30
2016,06,17,13,22,18.30
2016,06,17,13,23,18.20
2016,06,17,13,24,18.20
2016,06,17,13,25,18.20
2016,06,17,13,26,18.20
2016,06,17,13,27,18.20
2016,06,17,13,28,18.20
2016,06,17,13,29,18.30
2016,06,17,13,30,18.40
2016,06,17,13,31,18.50
2016,06,17,13,32,18.50
2016,06,17,13,33,18.60
2016,06,17,13,34,18.60
2016,06,17,13,35,18.60
2016,06,17,13,36,18.70
2016,06,17,13,37,18.70
2016,06,17,13,38,18.80
2016,06,17,13,39,18.90
2016,06,17,13,40,19.00
2016,06,17,13,41,19.10
2016,06,17,13,42,19.10
2016,06,17,13,43,19.20
2016,06,17,13,44,19.20
2016,06,17,13,45,19.10
2016,06,17,13,46,19.00
2016,06,17,13,47,18.90
2016,06,17,13,48,18.90
2016,06,17,13,49,18.80
2016,06,17,13,50,18.80
2016,06,17,13,51,18.90
2016,06,17,13,52,18.90
2016,06,17,13,53,18.90
2016,06,17,13,54,18.90
2016,06,17,13,55,18.90
2016,06,17,13,56,18.90
2016,06,17,13,57,18.90
2016,06,17,13,58,18.80
2016,06,17,13,59,18.80
2016,06,17,14,00,18.70
2016,06,17,14,01,18.70
2016,06,17,14,02,18.60
2016,06,17,14,03,18.50
2016,06,17,14,04,18.40
2016,06,17,14,05,18.30
2016,06,17,14,06,18.30
2016,06,17,14,07,18.20
2016,06,17,14,08,18.20
2016,06,17,14,09,18.20
2016,06,17,14,10,18.20
2016,06,17,14,11,18.20
2016,06,17,14,12,18.30
2016,06,17,14,13,18.40
2016,06,17,14,14,18.50
2016,06,17,14,15,18.60
2016,06,17,14,16,18.60
2016,06,17,14,17,18.70
2016,06,17,14,18,18.70
2016,06,17,14,19,18.80
2016,06,17,14,20,18.90
2016,06,17,14,21,18.90
2016,06,17,14,22,18.90
2016,06,17,14,23,19.00
2016,06,17,14,24,19.10
2016,06,17,14,25,19.20
2016,06,17,14,26,19.20
2016,06,17,14,27,19.10
2016,06,17,14,28,19.10
2016,06,17,14,29,19.10
2016,06,17,14,30,19.10
2016,06,17,14,31,19.10
2016,06,17,14,32,19.00
2016,06,17,14,33,19.00
2016,06,17,14,34,18.90
2016,06,17,14,35,19.00
2016,06,17,14,36,19.00
2016,06,17,14,37,19.00
2016,06,17,14,38,19.10
2016,06,17,14,39,19.10
2016,06,17,14,40,19.00
2016,06,17,14,41,19.00
2016,06,17,14,42,19.00
2016,06,17,14,43,19.00
2016,06,17,14,44,19.00
2016,06,17,14,45,19.10
2016,06,17,14,46,19.10
2016,06,17,14,47,19.10
2016,06,17,14,48,19.10
2016,06,17,14,49,19.10
2016,06,17,14,50,19.10
2016,06,17,14,51,19.00
2016,06,17,14,52,19.00
2016,06,17,14,53,19.00
2016,06,17,14,54,18.90
2016,06,17,14,55,18.90
2016,06,17,14,56,18.90
2016,06,17,14,57,18.90
2016,06,17,14,58,19.00
2016,06,17,14,59,19.00
2016,06,17,15,00,19.10
2016,06,17,15,01,19.10
2016,06,17,15,02,19.10
2016,06,17,15,03,19.10
2016,06,17,15,04,19.20
2016,06,17,15,05,19.30
2016,06,17,15,06,19.30
2016,06,17,15,07,19.40
2016,06,17,15,08,19.50
2016,06,17,15,09,19.60
2016,06,17,15,10,19.60
2016,06,17,15,11,19.60
2016,06,17,15,12,19.60
2016,06,17,15,13,19.60
2016,06,17,15,14,19.60
2016,06,17,15,15,19.70
2016,06,17,15,16,19.70
2016,06,17,15,17,19.70
2016,06,17,15,18,19.60
2016,06,17,15,19,19.60
2016,06,17,15,20,19.60
2016,06,17,15,21,19.60
2016,06,17,15,22,19.60
2016,06,17,15,23,19.60
2016,06,17,15,24,19.50
2016,06,17,15,25,19.50
2016,06,17,15,26,19.60
2016,06,17,15,27,19.60
2016,06,17,15,28,19.60
2016,06,17,15,29,19.50
2016,06,17,15,30,19.60
2016,06,17,15,31,19.50
2016,06,17,15,32,19.50
2016,06,17,15,33,19.50
2016,06,17,15,34,19.50
2016,06,17,15,35,19.60
2016,06,17,15,36,19.60
2016,06,17,15,37,19.70
2016,06,17,15,38,19.70
2016,06,17,15,39,19.80
2016,06,17,15,40,19.80
2016,06,17,15,41,19.80
2016,06,17,15,42,19.80
2016,06,17,15,43,19.80
2016,06,17,15,44,19.80
2016,06,17,15,45,19.80
2016,06,17,15,46,19.90
2016,06,17,15,47,19.90
2016,06,17,15,48,19.80
2016,06,17,15,49,19.70
2016,06,17,15,50,19.70
2016,06,17,15,51,19.70
2016,06,17,15,52,19.80
2016,06,17,15,53,19.80
2016,06,17,15,54,19.90
2016,06,17,15,55,19.90
2016,06,17,15,56,20.00
2016,06,17,15,57,20.10
2016,06,17,15,58,20.10
2016,06,17,15,59,20.10
2016,06,17,16,00,20.20
2016,06,17,16,01,20.20
2016,06,17,16,02,20.20
2016,06,17,16,03,20.20
2016,06,17,16,04,20.20
2016,06,17,16,05,20.20
2016,06,17,16,06,20.20
2016,06,17,16,07,20.20
2016,06,17,16,08,20.20
2016,06,17,16,09,20.20
2016,06,17,16,10,20.20
2016,06,17,16,11,20.30
2016,06,17,16,12,20.30
2016,06,17,16,13,20.30
2016,06,17,16,14,20.30
2016,06,17,16,15,20.30
2016,06,17,16,16,20.30
2016,06,17,16,17,20.30
2016,06,17,16,18,20.30
2016,06,17,16,19,20.20
2016,06,17,16,20,20.20
2016,06,17,16,21,20.30
2016,06,17,16,22,20.30
2016,06,17,16,23,20.30
2016,06,17,16,24,20.30
2016,06,17,16,25,20.30
2016,06,17,16,26,20.30
2016,06,17,16,27,20.20
2016,06,17,16,28,20.10
2016,06,17,16,29,20.10
2016,06,17,16,30,20.10
2016,06,17,16,31,20.00
2016,06,17,16,32,20.00
2016,06,17,16,33,19.90
2016,06,17,16,34,19.80
2016,06,17,16,35,19.80
2016,06,17,16,36,19.80
2016,06,17,16,37,19.70
2016,06,17,16,38,19.70
2016,06,17,16,39,19.60
2016,06,17,16,40,19.60
2016,06,17,16,41,19.60
2016,06,17,16,42,19.60
2016,06,17,16,43,19.70
2016,06,17,16,44,19.70
2016,06,17,16,45,19.70
2016,06,17,16,46,19.70
2016,06,17,16,47,19.70
2016,06,17,16,48,19.70
2016,06,17,16,49,19.70
2016,06,17,16,50,19.70
2016,06,17,16,51,19.70
2016,06,17,16,52,19.80
2016,06,17,16,53,19.80
2016,06,17,16,54,19.80
2016,06,17,16,55,19.80
2016,06,17,16,56,19.90
2016,06,17,16,57,19.90
2016,06,17,16,58,19.90
2016,06,17,16,59,20.00
2016,06,17,17,00,20.00
2016,06,17,17,01,20.10
2016,06,17,17,02,20.10
2016,06,17,17,03,20.10
2016,06,17,17,04,20.20
2016,06,17,17,05,20.10
2016,06,17,17,06,20.10
2016,06,17,17,07,20.00
2016,06,17,17,08,19.90
2016,06,17,17,09,19.90
2016,06,17,17,10,19.80
2016,06,17,17,11,19.70
2016,06,17,17,12,19.70
2016,06,17,17,13,19.70
2016,06,17,17,14,19.60
2016,06,17,17,15,19.60
2016,06,17,17,16,19.60
2016,06,17,17,17,19.70
2016,06,17,17,18,19.60
2016,06,17,17,19,19.60
2016,06,17,17,20,19.50
2016,06,17,17,21,19.50
2016,06,17,17,22,19.50
2016,06,17,17,23,19.50
2016,06,17,17,24,19.60
2016,06,17,17,25,19.70
2016,06,17,17,26,19.70
2016,06,17,17,27,19.80
2016,06,17,17,28,19.90
2016,06,17,17,29,20.00
2016,06,17,17,30,20.10
2016,06,17,17,31,20.10
2016,06,17,17,32,20.20
2016,06,17,17,33,20.20